"Pseudo-MPEC" for P21OuZI

Created 2023 Dec 2 2:22:07 UT using Find_Orb

Click here for an explanation of pseudo-MPECs

 
 Astrometry: 
     P21OuZI* C2023 11 20@RAstrometryYredacted;_YvCthr[I-:u?/9kT6J)]GJK($nHV(F52
     P21OuZI  C2023 11 20bi$+=clickGWxGZ_;0XJ#JY:tbwAfH$jqLy4DWta$Q:%fSAv2Ey\F52
     P21OuZI  C2023 11 20$m0fj+Smhere/w6R=$vforNx7S*QXexplanationp+SFqyy-WG=DF52
     P21OuZI KC2023 11 21.31248104 57 28.290-18 19 49.10   ~BL8M       VNEOCPI52
     P21OuZI KC2023 11 21.31712504 57 27.840-18 19 45.70   ~BL8M       VNEOCPI52
     P21OuZI KC2023 11 21.32176704 57 27.590-18 19 41.60   ~BL8M       VNEOCPI52

Station data:
(F52) Pan-STARRS 2, Haleakala  (N20.707382 W156.255910)  US/Hawaii.
   Observers J. Bulger, T. Dukes, T. Lowe, A. Schultz, M. Willman. Measurers
   K. Chambers, S. Chastel, T. de Boer, L. Denneau, J. Fairlamb, H.
   Flewelling, M. Huber, C.-C. Lin, E. Magnier, Y. Ramanjooloo, R. Wainscoat,
   R. Weryk. 1.8-m Ritchey-Chrétien + CCD.
(I52) Steward Observatory, Mt. Lemmon Station  (N32.442544 W110.788920)
   US/Arizona.  Observers T. A. Pruyne, B. M. Africano, E. J. Christensen, G.
   A. Farneth, D. C. Fuls, A. R. Gibbs, A. D. Grauer, H. Gröller, J. A.
   Johnson, R. A. Kowalski, S. M. Larson, G. J. Leonard, D. Rankin, R. L.
   Seaman, F. C. Shelly, K. W. Wierzchoś. 1.0-m prime focus + CCD.

Orbital elements:  P21OuZI
   Perihelion 2023 Jul 10.91961 +/- 102 TT = 22:04:14 (JD 2460136.41961)
Epoch 2023 Nov 21.0 TT = JDT 2460269.5   Earth MOID: 0.3968   Ma: 0.0341
M  30.96424810 +/- 31               (J2000 ecliptic)             AutoNEOCP
n   0.23267326 +/- 0.0681           Peri.  224.07750 +/- 56
a   2.61801258 +/- 0.511            Node   114.72533 +/- 7
e   0.4912131 +/- 0.11              Incl.   25.76087 +/- 6
P   4.24                   H 19.36  G  0.15   U 11.0  SR
q 1.33201038 +/- 0.269    Q 3.90401478 +/- 0.592
From 6 observations 2023 Nov. 20-21 (20.7 hr); mean residual 0".57
Residuals in arcseconds: 
231120 F52  .14-  .05-    231120 F52  .07+  .18+    231121 I52  .96-  .24-    
231120 F52  .07+  .12-    231121 I52  .43-  .50-    231121 I52  1.4+  .72+    

Ephemerides (geocentric):
Date (UTC) HH   RA             Dec           delta  r     elong  mag " sig PA
---- --------  ------------   ------------  ------ ------ -----  --- --------
2023 12 02 02  04 42 07.707   -15 49 59.92  1.0446 1.9214 142.2 21.8  734  44
2023 12 02 03  04 42 04.248   -15 49 19.19  1.0448 1.9216 142.2 21.8  739  44
2023 12 02 04  04 42 00.791   -15 48 38.42  1.0450 1.9218 142.2 21.8  745  44
2023 12 02 05  04 41 57.336   -15 47 57.61  1.0453 1.9221 142.2 21.8  750  44
2023 12 02 06  04 41 53.882   -15 47 16.75  1.0455 1.9223 142.3 21.8  756  44
2023 12 02 07  04 41 50.429   -15 46 35.86  1.0457 1.9226 142.3 21.8  762  44
2023 12 02 08  04 41 46.978   -15 45 54.92  1.0459 1.9228 142.3 21.8  768  44
2023 12 02 09  04 41 43.529   -15 45 13.94  1.0461 1.9231 142.3 21.8  773  44
2023 12 02 10  04 41 40.081   -15 44 32.92  1.0463 1.9233 142.3 21.8  779  44
2023 12 02 11  04 41 36.634   -15 43 51.86  1.0466 1.9236 142.3 21.8  785  44
2023 12 02 12  04 41 33.189   -15 43 10.76  1.0468 1.9238 142.3 21.8  791  44
2023 12 02 13  04 41 29.746   -15 42 29.62  1.0470 1.9241 142.3 21.8  797  44
2023 12 02 14  04 41 26.304   -15 41 48.44  1.0472 1.9243 142.3 21.8  802  44
2023 12 02 15  04 41 22.863   -15 41 07.21  1.0474 1.9246 142.3 21.8  808  44
2023 12 02 16  04 41 19.425   -15 40 25.94  1.0476 1.9248 142.3 21.8  814  44
2023 12 02 17  04 41 15.988   -15 39 44.64  1.0479 1.9251 142.4 21.8  820  44
2023 12 02 18  04 41 12.552   -15 39 03.29  1.0481 1.9253 142.4 21.8  826  44
2023 12 02 19  04 41 09.118   -15 38 21.90  1.0483 1.9256 142.4 21.8  832  44
2023 12 02 20  04 41 05.686   -15 37 40.47  1.0485 1.9258 142.4 21.8  838  44
2023 12 02 21  04 41 02.255   -15 36 59.00  1.0487 1.9261 142.4 21.8  844  44
2023 12 02 22  04 40 58.826   -15 36 17.49  1.0490 1.9263 142.4 21.8  850  44
2023 12 02 23  04 40 55.398   -15 35 35.94  1.0492 1.9266 142.4 21.8  856  44
2023 12 03 00  04 40 51.972   -15 34 54.35  1.0494 1.9268 142.4 21.8  862  44
2023 12 03 01  04 40 48.548   -15 34 12.72  1.0496 1.9271 142.4 21.8  868  44
2023 12 03 02  04 40 45.125   -15 33 31.05  1.0498 1.9273 142.4 21.8  874  44
2023 12 03 03  04 40 41.704   -15 32 49.34  1.0501 1.9276 142.4 21.8  881  44
2023 12 03 04  04 40 38.285   -15 32 07.58  1.0503 1.9278 142.4 21.8  887  44
2023 12 03 05  04 40 34.867   -15 31 25.79  1.0505 1.9281 142.4 21.8  893  44
2023 12 03 06  04 40 31.451   -15 30 43.96  1.0507 1.9283 142.5 21.8  899  44
2023 12 03 07  04 40 28.037   -15 30 02.09  1.0510 1.9286 142.5 21.8  905  44
2023 12 03 08  04 40 24.624   -15 29 20.17  1.0512 1.9288 142.5 21.8  912  44
2023 12 03 09  04 40 21.213   -15 28 38.22  1.0514 1.9291 142.5 21.8  918  44
2023 12 03 10  04 40 17.804   -15 27 56.23  1.0516 1.9293 142.5 21.8  924  44
2023 12 03 11  04 40 14.396   -15 27 14.20  1.0519 1.9296 142.5 21.8  930  44
2023 12 03 12  04 40 10.990   -15 26 32.12  1.0521 1.9298 142.5 21.8  937  44
2023 12 03 13  04 40 07.586   -15 25 50.01  1.0523 1.9301 142.5 21.8  943  44
2023 12 03 14  04 40 04.184   -15 25 07.86  1.0525 1.9303 142.5 21.8  950  44
2023 12 03 15  04 40 00.783   -15 24 25.67  1.0528 1.9306 142.5 21.8  956  44
2023 12 03 16  04 39 57.384   -15 23 43.44  1.0530 1.9308 142.5 21.8  962  44
2023 12 03 17  04 39 53.987   -15 23 01.17  1.0532 1.9311 142.5 21.8  969  43
2023 12 03 18  04 39 50.592   -15 22 18.86  1.0534 1.9313 142.5 21.8  975  43
2023 12 03 19  04 39 47.198   -15 21 36.51  1.0537 1.9316 142.5 21.8  982  43
2023 12 03 20  04 39 43.806   -15 20 54.13  1.0539 1.9318 142.6 21.8  988  43
2023 12 03 21  04 39 40.416   -15 20 11.70  1.0541 1.9321 142.6 21.8  995  43
2023 12 03 22  04 39 37.028   -15 19 29.24  1.0544 1.9323 142.6 21.8 1001  43
2023 12 03 23  04 39 33.641   -15 18 46.73  1.0546 1.9326 142.6 21.8 1008  43
2023 12 04 00  04 39 30.256   -15 18 04.19  1.0548 1.9328 142.6 21.8 1015  43
2023 12 04 01  04 39 26.873   -15 17 21.60  1.0550 1.9331 142.6 21.8 1021  43